Location: Anjeux
(47.8815°N, 6.2076°E)
Time: 12:58:03
(UTC+00:00)

Envisat - Visible Passes

Search period start: 24 September 2021 00:00
Search period end: 04 October 2021 00:00
Orbit: 764 x 766 km, 98.2° (Epoch: 23 September)

Date Brightness Start Highest point End Pass type
(mag) Time Alt. Az. Time Alt. Az. Time Alt. Az.
24 Sep 3.8 04:35:25 10° NNE 04:40:27 58° E 04:45:27 10° S visible
25 Sep 5.2 03:59:00 10° NE 04:03:23 28° E 04:07:44 10° SSE visible
26 Sep 6.0 03:23:34 10° ENE 03:26:06 14° E 03:28:39 10° ESE visible
27 Sep 4.2 04:23:59 10° NNE 04:28:53 46° E 04:33:46 10° S visible
28 Sep 5.5 03:47:46 10° NE 03:51:46 23° E 03:55:44 10° SE visible
29 Sep 6.3 03:13:17 10° ENE 03:14:26 11° E 03:15:34 10° E visible
29 Sep 3.2 04:49:11 10° NNE 04:54:18 77° ESE 04:59:23 10° S visible
30 Sep 4.6 04:12:35 10° NNE 04:17:19 37° E 04:22:00 10° SSE visible
01 Oct 5.8 03:36:37 10° NE 03:40:07 18° E 03:43:37 10° SE visible
02 Oct 3.6 04:37:42 10° NNE 04:42:46 62° E 04:47:47 10° S visible
03 Oct 5.0 04:01:15 10° NNE 04:05:43 30° E 04:10:10 10° SSE visible
